Starlink 32040

operational
NORAD ID: 60109 Int'l Des: 2024-117 Owner: SPXS Country: US Constellation: starlink
LEOCIRCULAR

关于 Starlink 32040

正在加载描述...

实时位置

正在加载3D地球...

即将过境

高度历史

Altitude vs Time

uPlot chart will show altitude changes over time

两行轨道根数

1 60109U 24117U 26036.69947898 .00003639 00000-0 13503-3 0 9994
2 60109 53.1579 185.3589 0000353 321.3840 38.7135 15.30172581 91997
Epoch: Feb 5, 2026 • Age: 7 hours

当前状态

高度 475.9 km
速度 7.63 km/s
星下点 19.33°N, 143.3°W
发射日期 Jun 23, 2024
运行时间 1.6 years
类型 internet

技术详情

分类 Payload
质量 730.00 kg
干质量 700.00 kg
总质量 730.00 kg
长度 0.30 m
直径 4.10 m
跨度 29.00 m
形状 Box + pan
制造商 SPXS
平台类型 Starlink V2M
阶段状态 In Orbit
所有者/国家 SPXS/US

大型星座

Loading constellations...